Moriarty, NM

10:58 AM MDT on June 25, 2017 (GMT -0600)
Moriarty

Weather History for K0E0 - November, 2012

Change the Weather History Date:

Monday, November 5, 2012

  Actual Average (KABQ) Record (KABQ)
Temperature  
Mean Temperature 46 °F -  
Max Temperature 69 °F 62 °F 81 °F (1915)
Min Temperature 23 °F 34 °F 16 °F (1922)
Degree Days  
Heating Degree Days 19    
Moisture  
Dew Point 12 °F    
Average Humidity 28    
Maximum Humidity 41    
Minimum Humidity 13    
Precipitation  
Precipitation 0.00 in - - ()
Sea Level Pressure  
Sea Level Pressure 30.32 in    
Wind  
Wind Speed 3 mph (NNW)    
Max Wind Speed 9 mph    
Max Gust Speed 21 mph    
Visibility 10 miles    
Events      
Averages and records for this station are not official NWS values.
T = Trace of Precipitation, MM = Missing Value Source: NWS Daily Summary

Daily Weather History Graph

Daily Weather History Graph

Search for Another Location

Airport or City:

Trip Planner

Search our weather history database for the weather conditions in past years. The results will help you decide how hot, cold, wet, or windy it might be!

Date:

Astronomy

Nov. 05, 2012 Rise Set
Actual Time 6:29 AM MST 5:05 PM MST
Civil Twilight 6:02 AM MST 5:31 PM MST
Nautical Twilight 5:32 AM MST 6:02 PM MST
Astronomical Twilight 5:03 AM MST 6:31 PM MST
Moon 10:45 PM MST (11/5) 11:49 AM MST (11/5)
Length of Visible Light 11h 29m
Length of Day
10h 36m
Waning Gibbous, 62% of the Moon is Illuminated
Nov 5
Waning Gibbous
Nov 6
Last Quarter
Nov 13
New
Nov 20
First Quarter
Nov 28
Full

Hourly Weather History & Observations

Time (MST) Temp. Windchill Dew Point Humidity Pressure Visibility Wind Dir Wind Speed Gust Speed Precip Events Conditions
12:15 AM 33.6 °F 27.5 °F 6.6 °F 32% 30.31 in 10.0 mi NE 6.9 mph - N/A   Clear
12:35 AM 34.0 °F 31.0 °F 6.8 °F 32% 30.32 in 10.0 mi East 3.5 mph - N/A   Clear
12:55 AM 37.6 °F 35.1 °F 8.1 °F 29% 30.33 in 10.0 mi NW 3.5 mph - N/A   Clear
1:15 AM 34.3 °F - 6.3 °F 31% 30.33 in 10.0 mi Calm Calm - N/A   Clear
1:35 AM 33.8 °F 30.8 °F 6.3 °F 32% 30.33 in 10.0 mi North 3.5 mph - N/A   Clear
1:55 AM 30.4 °F 25.6 °F 3.9 °F 33% 30.34 in 10.0 mi NE 4.6 mph - N/A   Clear
2:15 AM 31.6 °F 28.3 °F 6.4 °F 35% 30.35 in 10.0 mi NNW 3.5 mph - N/A   Clear
2:35 AM 27.5 °F - 3.4 °F 36% 30.35 in 10.0 mi Calm Calm - N/A   Clear
2:55 AM 30.0 °F 25.2 °F 4.6 °F 34% 30.35 in 10.0 mi North 4.6 mph - N/A   Clear
3:15 AM 28.9 °F 25.2 °F 4.1 °F 35% 30.34 in 10.0 mi North 3.5 mph - N/A   Clear
3:35 AM 30.6 °F - 5.7 °F 35% 30.34 in 10.0 mi Calm Calm - N/A   Clear
3:55 AM 30.6 °F - 4.6 °F 33% 30.35 in 10.0 mi Calm Calm - N/A   Clear
4:15 AM 28.6 °F - 4.3 °F 36% 30.34 in 10.0 mi Calm Calm - N/A   Clear
4:35 AM 25.2 °F 19.5 °F 3.6 °F 40% 30.35 in 10.0 mi North 4.6 mph - N/A   Clear
4:55 AM 25.0 °F 19.3 °F 3.4 °F 40% 30.35 in 10.0 mi North 4.6 mph - N/A   Clear
5:15 AM 25.9 °F 21.7 °F 4.1 °F 39% 30.35 in 10.0 mi NNW 3.5 mph - N/A   Clear
5:35 AM 23.9 °F - 1.9 °F 39% 30.36 in 10.0 mi Calm Calm - N/A   Clear
5:55 AM 25.9 °F - 5.0 °F 41% 30.37 in 10.0 mi Calm Calm - N/A   Clear
6:15 AM 28.6 °F - 6.8 °F 40% 30.37 in 10.0 mi Calm Calm - N/A   Clear
6:35 AM 27.9 °F - 4.6 °F 37% 30.37 in 10.0 mi Calm Calm - N/A   Clear
7:15 AM 26.6 °F 22.6 °F 3.9 °F 38% 30.39 in 10.0 mi North 3.5 mph - N/A   Clear
7:35 AM 31.6 °F - 5.5 °F 33% 30.39 in 10.0 mi Calm Calm - N/A   Clear
7:55 AM 34.9 °F - 7.2 °F 31% 30.39 in 10.0 mi Calm Calm - N/A   Clear
8:15 AM 39.7 °F - 8.6 °F 28% 30.40 in 10.0 mi Calm Calm - N/A   Clear
8:35 AM 44.2 °F - 10.2 °F 25% 30.40 in 10.0 mi Calm Calm - N/A   Clear
8:55 AM 47.5 °F - 11.5 °F 23% 30.40 in 10.0 mi Calm Calm - N/A   Clear
9:15 AM 50.5 °F - 14.0 °F 23% 30.40 in 10.0 mi Calm Calm - N/A   Clear
9:35 AM 53.6 °F - 14.9 °F 22% 30.39 in 7.0 mi Calm Calm - N/A   Clear
9:55 AM 55.4 °F - 16.0 °F 21% 30.38 in 10.0 mi South 4.6 mph - N/A   Clear
10:15 AM 56.5 °F - 17.4 °F 22% 30.38 in 10.0 mi SSW 5.8 mph - N/A   Clear
10:35 AM 57.4 °F - 19.4 °F 23% 30.37 in 10.0 mi South 6.9 mph - N/A   Clear
10:55 AM 57.6 °F - 20.5 °F 24% 30.36 in 10.0 mi SSE 9.2 mph - N/A   Clear
11:15 AM 58.8 °F - 20.3 °F 23% 30.35 in 10.0 mi SSE 6.9 mph - N/A   Clear
11:35 AM 59.5 °F - 19.9 °F 22% 30.34 in 10.0 mi South 5.8 mph - N/A   Clear
11:55 AM 61.3 °F - 20.1 °F 20% 30.34 in 10.0 mi SSE 5.8 mph - N/A   Clear
12:15 PM 61.7 °F - 19.8 °F 20% 30.32 in 10.0 mi ESE 4.6 mph - N/A   Clear
12:35 PM 61.7 °F - 19.6 °F 20% 30.31 in 10.0 mi Calm Calm - N/A   Clear
12:55 PM 63.7 °F - 19.4 °F 18% 30.30 in 10.0 mi Calm Calm - N/A   Clear
1:35 PM 65.5 °F - 18.5 °F 16% 30.28 in 10.0 mi South 5.8 mph - N/A   Clear
1:55 PM 65.5 °F - 18.5 °F 16% 30.27 in 10.0 mi South 4.6 mph - N/A   Clear
2:15 PM 66.2 °F - 18.5 °F 16% 30.26 in 10.0 mi SSW 3.5 mph - N/A   Clear
2:35 PM 67.3 °F - 18.5 °F 15% 30.26 in 10.0 mi SSW 3.5 mph - N/A   Clear
2:55 PM 68.4 °F - 18.5 °F 15% 30.26 in 10.0 mi WSW 3.5 mph - N/A   Clear
3:15 PM 67.3 °F - 18.0 °F 15% 30.25 in 10.0 mi North 3.5 mph - N/A   Clear
3:35 PM 69.1 °F - 16.5 °F 13% 30.25 in 10.0 mi NW 8.1 mph - N/A   Clear
3:55 PM 68.7 °F - 16.5 °F 14% 30.25 in 10.0 mi NW 9.2 mph 20.7 mph N/A   Clear
4:15 PM 67.1 °F - 17.2 °F 15% 30.25 in 10.0 mi NNW 9.2 mph 12.7 mph N/A   Clear
4:35 PM 64.6 °F - 16.7 °F 16% 30.26 in 10.0 mi North 9.2 mph - N/A   Clear
4:55 PM 61.7 °F - 17.1 °F 18% 30.26 in 10.0 mi North 5.8 mph - N/A   Clear
5:15 PM 58.5 °F - 16.9 °F 20% 30.26 in 10.0 mi Calm Calm - N/A   Clear
5:35 PM 57.9 °F - 17.1 °F 20% 30.26 in 10.0 mi West 3.5 mph - N/A   Clear
5:55 PM 57.2 °F - 16.7 °F 21% 30.26 in 10.0 mi West 8.1 mph - N/A   Clear
6:15 PM 52.3 °F - 14.9 °F 23% 30.26 in 10.0 mi SW 4.6 mph - N/A   Clear
6:35 PM 50.7 °F - 15.6 °F 25% 30.27 in 10.0 mi West 3.5 mph - N/A   Clear
6:55 PM 47.7 °F - 14.7 °F 27% 30.28 in 10.0 mi Calm Calm - N/A   Clear
7:15 PM 50.5 °F - 16.2 °F 26% 30.28 in 10.0 mi Calm Calm - N/A   Clear
7:35 PM 44.6 °F 43.1 °F 13.1 °F 28% 30.28 in 10.0 mi NNE 3.5 mph - N/A   Clear
7:55 PM 41.9 °F 40.0 °F 12.6 °F 30% 30.28 in 10.0 mi East 3.5 mph - N/A   Clear
8:15 PM 41.9 °F 39.0 °F 12.7 °F 31% 30.29 in 10.0 mi East 4.6 mph - N/A   Clear
8:35 PM 42.1 °F - 11.7 °F 29% 30.29 in 10.0 mi Calm Calm - N/A   Clear
8:55 PM 40.1 °F - 12.4 °F 32% 30.29 in 10.0 mi Calm Calm - N/A   Clear
9:15 PM 37.2 °F - 9.7 °F 32% 30.29 in 10.0 mi Calm Calm - N/A   Clear
9:35 PM 38.8 °F 36.5 °F 12.4 °F 34% 30.29 in 10.0 mi NW 3.5 mph - N/A   Clear
9:55 PM 36.7 °F 32.9 °F 11.3 °F 35% 30.29 in 10.0 mi West 4.6 mph - N/A   Clear
10:15 PM 35.2 °F 32.4 °F 10.0 °F 35% 30.29 in 10.0 mi West 3.5 mph - N/A   Clear
10:35 PM 36.0 °F - 11.3 °F 36% 30.29 in 10.0 mi Calm Calm - N/A   Clear
10:55 PM 34.5 °F 30.4 °F 10.0 °F 36% 30.29 in 10.0 mi NNW 4.6 mph - N/A   Clear
11:15 PM 32.4 °F 26.0 °F 8.4 °F 37% 30.29 in 10.0 mi North 6.9 mph - N/A   Clear
11:35 PM 34.3 °F 28.4 °F 12.0 °F 40% 30.29 in 10.0 mi NNE 6.9 mph - N/A   Clear
11:55 PM 35.2 °F 31.2 °F 11.8 °F 38% 30.29 in 10.0 mi NNE 4.6 mph - N/A   Clear